Regional Weather Roundup
Issued by NWS Little Rock, AR

Home | Current Version | Previous Version | Graphics & Text | Print | Product List | Glossary On
Versions: 1 2 3 4 5 6 7 8 9 10 11 12 13 14 15 16 17 18 19 20 21 22 23 24 25 26 27 28 29 30 31 32 33 34 35 36 37 38 39 40 41 42 43 44 45 46 47 48 49 50
327
ASUS44 KLZK 041305
RWRLZK

WEATHER ROUNDUP FOR ARKANSAS
NATIONAL WEATHER SERVICE LITTLE ROCK AR
800 AM CDT WED MAY 04 2016

NOTE: "FAIR" INDICATES FEW OR NO CLOUDS BELOW 12,000 FEET WITH NO
SIGNIFICANT WEATHER AND/OR OBSTRUCTIONS TO VISIBILITY.

ARZ001-003-010-029-041400-
NORTHWEST ARKANSAS

CITY           SKY/WX    TMP DP  RH WIND       PRES   REMARKS
FAYETTEVILLE   SUNNY     57  49  74 W10G23    29.96S
FORT SMITH     SUNNY     56  46  69 W10       29.97F
HARRISON       SUNNY     58  45  62 W15       29.90S
BENTONVILLE    SUNNY     55  45  67 W7        29.96R
ROGERS         SUNNY     55  48  77 W8        29.96R
SILOAM SPGS    SUNNY     55  43  62 W8        29.97S
HIGHFILL       SUNNY     56  49  77 W10       29.95R
SPRINGDALE     SUNNY     57  46  67 W10       29.97S
$$

ARZ004-005-016-041400-
NORTH CENTRAL ARKANSAS

CITY           SKY/WX    TMP DP  RH WIND       PRES   REMARKS
BATESVILLE     SUNNY     59  46  63 W8        29.89F
FLIPPIN        SUNNY    N/A N/A N/A W10G18    29.85S
MTN HOME       SUNNY     56  46  69 CALM      29.86F
$$

ARZ040-041-041400-
WEST CENTRAL ARKANSAS

CITY           SKY/WX    TMP DP  RH WIND       PRES   REMARKS
MENA           SUNNY     61  48  63 W7        30.00S
$$

ARZ009-017-025-026-028-041400-
NORTHEAST ARKANSAS

CITY           SKY/WX    TMP DP  RH WIND       PRES   REMARKS
CORNING          N/A     55  48  76 SW9       29.84F
JONESBORO      MOSUNNY   57  48  72 SW8       29.87F
NEWPORT        MOSUNNY   57  46  66 SW8       29.89F
WALNUT RIDGE   SUNNY     55  45  67 SW9       29.85F
BLYTHEVILLE    MOSUNNY   57  48  72 SW8       29.86F
$$

ARZ022-023-033-042-044-041400-
CENTRAL ARKANSAS

CITY           SKY/WX    TMP DP  RH WIND       PRES   REMARKS
LITTLE ROCK    MOSUNNY   56  48  74 SW9       29.95S
N LITTLE ROCK    N/A     59  48  66 W3        29.93S
JACKSONVILLE   SUNNY     56  50  79 SW6       29.93S
SEARCY         MOSUNNY   55  50  82 VRB5      29.93F
HOT SPRINGS    SUNNY     54  48  80 CALM      29.98S
RUSSELLVILLE   SUNNY     53  50  89 CALM      29.95S
$$

ARZ036-041400-
EAST ARKANSAS

CITY           SKY/WX    TMP DP  RH WIND       PRES   REMARKS
WEST MEMPHIS   SUNNY     57  50  77 VRB3      29.89F
$$

ARZ050-053-066-070-073-041400-
SOUTHWEST ARKANSAS

CITY           SKY/WX    TMP DP  RH WIND       PRES   REMARKS
ARKADELPHIA    FAIR      57  54  90 CALM      29.99S
CAMDEN         SUNNY     55  52  88 CALM      29.99S
TEXARKANA      MOSUNNY   57  50  77 SW6       30.02R
EL DORADO      MOSUNNY   57  53  86 CALM      30.00R
DE QUEEN       SUNNY     50  49  96 CALM      30.00S
$$

ARZ056-057-069-041400-
SOUTHEAST ARKANSAS

CITY           SKY/WX    TMP DP  RH WIND       PRES   REMARKS
PINE BLUFF     MOSUNNY   56  49  77 W6        29.96S
STUTTGART      PTSUNNY   57  48  72 W8        29.94S
MONTICELLO     SUNNY     57  50  77 W6        29.96F

$$






USA.gov is the U.S. government's official web portal to all federal, state and local government web resources and services.